When you browse on this site, cookies collect data to enhance your experience and personalize the content and advertising you see.
Visit our Privacy Policy to learn more. By continuing to use the site, you agree to this use of cookies and data.

Hourly Weather Abha

Today, 12 July, Sunday

Time Temperature Precipitation Wind Pressure Humidity
00:00 +29°C° 0 mm 1 mps 640 mmHg 33%
01:00 +29°C° 0 mm 1 mps 640 mmHg 33%
02:00 +28°C° 0 mm 1 mps 639 mmHg 33%
03:00 +28°C° 0 mm 1 mps 639 mmHg 33%
04:00 +27°C° 0 mm 1 mps 639 mmHg 34%
05:00 +27°C° 0 mm 1 mps 639 mmHg 34%
06:00 +26°C° 0 mm 1 mps 639 mmHg 34%
07:00 +29°C° 0 mm 1 mps 640 mmHg 30%
08:00 +31°C° 0 mm 2 mps 640 mmHg 26%
09:00 +34°C° 0 mm 2 mps 641 mmHg 21%
10:00 +35°C° 0 mm 3 mps 641 mmHg 20%
11:00 +36°C° 0 mm 4 mps 641 mmHg 18%
12:00 +39°C° 0 mm 5 mps 642 mmHg 16%
13:00 +39°C° 0 mm 6 mps 641 mmHg 16%
14:00 +39°C° 0 mm 6 mps 641 mmHg 16%
15:00 +39°C° 0 mm 7 mps 641 mmHg 16%
16:00 +38°C° 0 mm 6 mps 640 mmHg 17%
17:00 +36°C° 0 mm 6 mps 640 mmHg 18%
18:00 +35°C° 0 mm 5 mps 640 mmHg 20%
19:00 +33°C° 0 mm 4 mps 640 mmHg 22%
20:00 +32°C° 0 mm 4 mps 640 mmHg 24%
21:00 +30°C° 0 mm 3 mps 640 mmHg 27%
22:00 +30°C° 0 mm 3 mps 640 mmHg 27%
23:00 +29°C° 0 mm 3 mps 640 mmHg 27%

Tomorrow, 13 July, Monday

Time Temperature Precipitation Wind Pressure Humidity
00:00 +29°C° 0 mm 3 mps 639 mmHg 27%
01:00 +29°C° 0 mm 3 mps 639 mmHg 26%
02:00 +28°C° 0 mm 3 mps 638 mmHg 25%
03:00 +28°C° 0 mm 3 mps 638 mmHg 24%
04:00 +27°C° 0 mm 3 mps 638 mmHg 26%
05:00 +27°C° 0 mm 2 mps 638 mmHg 28%
06:00 +26°C° 0 mm 2 mps 638 mmHg 29%
07:00 +28°C° 0 mm 2 mps 639 mmHg 26%
08:00 +30°C° 0 mm 3 mps 639 mmHg 24%
09:00 +33°C° 0 mm 3 mps 640 mmHg 21%
10:00 +34°C° 0 mm 4 mps 640 mmHg 20%
11:00 +35°C° 0 mm 4 mps 641 mmHg 19%
12:00 +36°C° 0 mm 5 mps 641 mmHg 18%
13:00 +36°C° 0 mm 6 mps 641 mmHg 18%
14:00 +36°C° 0 mm 7 mps 640 mmHg 18%
15:00 +36°C° 0 mm 7 mps 640 mmHg 19%
16:00 +35°C° 0 mm 7 mps 640 mmHg 23%
17:00 +34°C° 0 mm 6 mps 640 mmHg 26%
18:00 +32°C° 0 mm 5 mps 640 mmHg 30%
19:00 +32°C° 0 mm 4 mps 640 mmHg 32%
20:00 +30°C° 0 mm 4 mps 640 mmHg 33%
21:00 +29°C° 0 mm 3 mps 640 mmHg 34%
22:00 +29°C° 0 mm 3 mps 640 mmHg 32%
23:00 +29°C° 0 mm 2 mps 640 mmHg 31%

Day after tomorrow, 14 July, Tuesday

Time Temperature Precipitation Wind Pressure Humidity
00:00 +28°C° 0 mm 2 mps 640 mmHg 29%
01:00 +28°C° 0 mm 2 mps 640 mmHg 28%
02:00 +27°C° 0 mm 2 mps 639 mmHg 27%
03:00 +27°C° 0 mm 3 mps 639 mmHg 26%
04:00 +27°C° 0 mm 3 mps 639 mmHg 29%
05:00 +27°C° 0 mm 3 mps 639 mmHg 31%
06:00 +26°C° 0 mm 3 mps 639 mmHg 33%
07:00 +28°C° 0 mm 3 mps 640 mmHg 30%
08:00 +30°C° 0 mm 3 mps 641 mmHg 27%
09:00 +33°C° 0 mm 3 mps 642 mmHg 24%
10:00 +34°C° 0 mm 3 mps 642 mmHg 22%
11:00 +35°C° 0 mm 4 mps 642 mmHg 19%
12:00 +37°C° 0 mm 4 mps 643 mmHg 17%
13:00 +37°C° 0 mm 5 mps 642 mmHg 18%
14:00 +37°C° 0 mm 5 mps 642 mmHg 18%
15:00 +38°C° 0 mm 6 mps 641 mmHg 18%
16:00 +36°C° 0 mm 6 mps 641 mmHg 22%
17:00 +34°C° 0 mm 5 mps 641 mmHg 26%
18:00 +33°C° 0 mm 5 mps 640 mmHg 29%
19:00 +32°C° 0 mm 4 mps 641 mmHg 31%
20:00 +30°C° 0 mm 3 mps 641 mmHg 32%
21:00 +30°C° 0 mm 2 mps 641 mmHg 34%
22:00 +29°C° 0 mm 2 mps 641 mmHg 34%
23:00 +29°C° 0 mm 1 mps 640 mmHg 35%

15 July, Wednesday

Time Temperature Precipitation Wind Pressure Humidity
00:00 +28°C° 0 mm 1 mps 640 mmHg 35%
01:00 +28°C° 0 mm 1 mps 640 mmHg 34%
02:00 +28°C° 0 mm 1 mps 640 mmHg 34%
03:00 +28°C° 0 mm 2 mps 639 mmHg 33%
04:00 +28°C° 0 mm 2 mps 639 mmHg 31%
05:00 +27°C° 0 mm 2 mps 640 mmHg 29%
06:00 +27°C° 0 mm 2 mps 640 mmHg 27%
07:00 +29°C° 0 mm 3 mps 641 mmHg 24%
08:00 +31°C° 0 mm 3 mps 642 mmHg 21%
09:00 +34°C° 0 mm 4 mps 642 mmHg 18%
10:00 +35°C° 0 mm 4 mps 643 mmHg 16%
11:00 +37°C° 0 mm 5 mps 643 mmHg 15%
12:00 +39°C° 0 mm 6 mps 643 mmHg 13%
13:00 +39°C° 0 mm 6 mps 643 mmHg 13%
14:00 +39°C° 0 mm 7 mps 642 mmHg 13%
15:00 +39°C° 0 mm 7 mps 642 mmHg 13%
16:00 +38°C° 0 mm 7 mps 641 mmHg 15%
17:00 +35°C° 0 mm 6 mps 641 mmHg 17%
18:00 +34°C° 0 mm 6 mps 641 mmHg 19%
19:00 +33°C° 0 mm 5 mps 641 mmHg 20%
20:00 +31°C° 0 mm 3 mps 641 mmHg 22%
21:00 +30°C° 0 mm 2 mps 641 mmHg 23%
22:00 +30°C° 0 mm 2 mps 641 mmHg 24%
23:00 +30°C° 0 mm 1 mps 640 mmHg 24%

16 July, Thursday

Time Temperature Precipitation Wind Pressure Humidity
00:00 +29°C° 0 mm 1 mps 640 mmHg 25%
01:00 +29°C° 0 mm 1 mps 639 mmHg 25%
02:00 +28°C° 0 mm 1 mps 639 mmHg 26%
03:00 +26°C° 0 mm 0 mps 639 mmHg 26%
04:00 +28°C° 0 mm 1 mps 639 mmHg 27%
05:00 +28°C° 0 mm 1 mps 639 mmHg 28%
06:00 +27°C° 0 mm 1 mps 639 mmHg 29%
07:00 +29°C° 0 mm 2 mps 640 mmHg 26%
08:00 +31°C° 0 mm 3 mps 641 mmHg 22%
09:00 +34°C° 0 mm 3 mps 641 mmHg 19%
10:00 +34°C° 0 mm 4 mps 641 mmHg 20%
11:00 +35°C° 0 mm 4 mps 641 mmHg 21%
12:00 +35°C° 0 mm 5 mps 641 mmHg 23%
13:00 +34°C° 0 mm 5 mps 641 mmHg 29%
14:00 +33°C° 0 mm 5 mps 640 mmHg 35%
15:00 +32°C° 0 mm 5 mps 640 mmHg 41%
16:00 +32°C° 0 mm 5 mps 640 mmHg 44%
17:00 +30°C° 0 mm 4 mps 640 mmHg 46%
18:00 +30°C° 0 mm 4 mps 640 mmHg 48%
19:00 +29°C° 0 mm 3 mps 640 mmHg 51%
20:00 +28°C° 0 mm 2 mps 640 mmHg 53%
21:00 +27°C° 0 mm 1 mps 640 mmHg 56%
22:00 +27°C° 0 mm 1 mps 640 mmHg 53%
23:00 +27°C° 0 mm 1 mps 640 mmHg 49%

17 July, Friday

Time Temperature Precipitation Wind Pressure Humidity
00:00 +28°C° 0 mm 1 mps 640 mmHg 46%
01:00 +28°C° 0 mm 1 mps 639 mmHg 43%
02:00 +27°C° 0 mm 1 mps 639 mmHg 39%
03:00 +27°C° 0 mm 1 mps 639 mmHg 36%
04:00 +27°C° 0 mm 2 mps 639 mmHg 36%
05:00 +26°C° 0 mm 2 mps 639 mmHg 37%
06:00 +26°C° 0 mm 2 mps 639 mmHg 37%
07:00 +27°C° 0 mm 3 mps 640 mmHg 33%
08:00 +29°C° 0 mm 3 mps 641 mmHg 30%
09:00 +32°C° 0 mm 4 mps 642 mmHg 26%
10:00 +32°C° 0 mm 4 mps 642 mmHg 25%
11:00 +33°C° 0 mm 5 mps 642 mmHg 24%
12:00 +34°C° 0 mm 5 mps 642 mmHg 24%
13:00 +34°C° 0 mm 6 mps 642 mmHg 26%
14:00 +34°C° 0 mm 6 mps 641 mmHg 28%
15:00 +34°C° 0 mm 6 mps 641 mmHg 30%
16:00 +33°C° 0 mm 6 mps 641 mmHg 36%
17:00 +32°C° 0 mm 6 mps 640 mmHg 41%
18:00 +30°C° 0 mm 5 mps 640 mmHg 47%
19:00 +29°C° 0 mm 5 mps 640 mmHg 49%
20:00 +28°C° 0 mm 4 mps 640 mmHg 52%
21:00 +28°C° 0 mm 3 mps 641 mmHg 55%
22:00 +28°C° 0 mm 3 mps 641 mmHg 53%
23:00 +28°C° 0 mm 2 mps 641 mmHg 51%
Show more